Location: Hlohovi?ky
(49.8934°N, 13.6739°E)
Time: 20:32:06
(UTC+00:00)

Cosmos 158 Rocket - Pass Details

Date: 19 May 2025
Orbit: 694 x 787 km, 74.0° (Epoch: 20 June)

Event Time Altitude Azimuth Distance (km) Brightness Sun altitude
Rises 20:31:42 0° 211° (SSW) 3,233 7.0 -12.7°
Reaches altitude 10° 20:34:04 10° 214° (SW) 2,320 6.3 -12.9°
Maximum altitude 20:39:20 66° 297° (WNW) 856 4.5 -13.4°
Drops below altitude 10° 20:44:42 10° 20° (NNE) 2,360 7.1 -13.8°
Sets 20:47:08 0° 23° (NNE) 3,292 7.8 -14.0°
